This demonstration page uses our WeatherBlox Daily Observations layout. Learn more.

Left ArrowRight Arrow

39.12711, -84.51439

Hourly Observations for August 18, 2018

Temp ( °F °C ) Dew Point ( °F °C ) Humidity (%) Winds ( mph kmh ) Pressure ( in mb ) Visibility ( mi km ) Precip ( " mm )
12:53 am 00:53 Mostly Cloudy 70 21.1 70 21.1 100 100 N N/A 29.98 1015 8 13 N/A
1:53 am 01:53 Mostly Cloudy 71 21.7 71 21.7 100 100 N N/A 29.97 1015 7 11 N/A
2:53 am 02:53 Partly Cloudy with Mist and Fog 70 21.1 70 21.1 100 100 N N/A 29.96 1015 4 6 N/A
3:05 am 03:05 Clear with Mist and Fog 69 20.6 69 20.6 100 100 N N/A 29.94 1014 2 3 N/A
3:13 am 03:13 Clear with Mist and Fog 69 20.6 69 20.6 100 100 N N/A 29.94 1014 1 2 N/A
3:40 am 03:40 Mostly Cloudy with Fog 69 20.6 69 20.6 100 100 N N/A 29.94 1014 0 0 N/A
3:53 am 03:53 Mostly Cloudy with Mist and Fog 69 20.6 69 20.6 100 100 N N/A 29.96 1015 1 2 N/A
3:56 am 03:56 Mostly Clear with Mist and Fog 68 20 68 20 100 100 N N/A 29.94 1014 3 4 N/A
4:03 am 04:03 Mostly Cloudy with Mist and Fog 68 20 68 20 100 100 N N/A 29.94 1014 1 2 N/A
4:10 am 04:10 Mostly Cloudy with Fog 68 20 68 20 100 100 N N/A 29.94 1014 1 1 N/A
4:17 am 04:17 Mostly Cloudy with Mist and Fog 68 20 68 20 100 100 N N/A 29.94 1014 3 4 N/A
4:24 am 04:24 Cloudy with Mist and Fog 68 20 68 20 100 100 N N/A 29.94 1014 4 6 N/A
4:43 am 04:43 Cloudy with Mist and Fog 68 20 68 20 100 100 N N/A 29.94 1014 6 10 N/A
4:49 am 04:49 Cloudy with Mist and Fog 70 21 70 21 100 100 N N/A 29.94 1014 1 2 N/A
4:53 am 04:53 Mostly Cloudy with Fog 68 20 68 20 100 100 N N/A 29.96 1015 0 0 N/A
5:24 am 05:24 Mostly Cloudy with Fog 69 20.6 69 20.6 100 100 N N/A 29.94 1014 0 0 N/A
5:53 am 05:53 Mostly Cloudy with Fog 69 20.6 69 20.6 100 100 N N/A 29.95 1014 1 1 N/A
6:02 am 06:02 Mostly Cloudy with Mist and Fog 69 20.6 69 20.6 100 100 N N/A 29.94 1014 1 1 N/A
6:11 am 06:11 Cloudy with Mist and Fog 69 20.6 69 20.6 100 100 N N/A 29.94 1014 1 2 N/A
6:21 am 06:21 Cloudy with Mist and Fog 69 20.6 69 20.6 100 100 N N/A 29.94 1014 3 5 N/A
6:30 am 06:30 Cloudy with Mist and Fog 69 20.6 69 20.6 100 100 N N/A 29.94 1014 4 6 N/A
6:53 am 06:53 Cloudy with Mist and Fog 69 20.6 69 20.6 100 100 N N/A 29.96 1015 5 8 N/A
7:53 am 07:53 Mostly Cloudy with Mist and Fog 70 21.1 70 21.1 100 100 N N/A 29.96 1015 2 2 N/A
8:11 am 08:11 Cloudy with Fog 71 21.7 71 21.7 100 100 N N/A 29.94 1014 1 1 N/A
8:26 am 08:26 Mostly Cloudy with Fog 71 21.7 71 21.7 100 100 N N/A 29.94 1014 1 1 N/A
8:37 am 08:37 Mostly Cloudy with Mist and Fog 71 21.7 71 21.7 100 100 N N/A 29.94 1014 1 2 N/A
8:53 am 08:53 Cloudy with Mist and Fog 72 22.2 72 22.2 100 100 N N/A 29.97 1015 1 2 N/A
9:11 am 09:11 Cloudy with Mist and Fog 73 22.8 73 22.8 100 100 N N/A 29.94 1014 3 4 N/A
9:14 am 09:14 Partly Cloudy with Mist and Fog 73 22.8 73 22.8 100 100 N N/A 29.94 1014 3 5 N/A
9:53 am 09:53 Partly Cloudy 75 23.9 72 22.2 90 90 SE 3 6 29.96 1015 9 14 N/A
10:13 am 10:13 Cloudy 76 24.4 73 22.8 91 91 N N/A 29.94 1014 10 16 N/A
10:53 am 10:53 Mostly Cloudy 77 25 72 22.2 85 85 VRB 3 6 29.96 1015 10 16 N/A
11:53 am 11:53 Mostly Cloudy 81 27.2 71 21.7 72 72 ENE 6 9 29.95 1014 10 16 N/A
12:38 pm 12:38 Mostly Cloudy 80 26.7 71 21.7 74 74 NNE 7 11 29.94 1014 10 16 N/A
12:53 pm 12:53 Mostly Cloudy 80 26.7 71 21.7 74 74 N 5 7 29.94 1014 10 16 N/A
1:53 pm 13:53 Mostly Cloudy 84 28.9 72 22.2 67 67 NE 7 11 29.92 1013 10 16 N/A
2:53 pm 14:53 Mostly Cloudy 84 28.9 70 21.1 63 63 VRB 5 7 29.91 1013 10 16 N/A
3:53 pm 15:53 Mostly Sunny 84 28.9 69 20.6 61 61 VRB 6 9 29.89 1012 10 16 N/A
4:53 pm 16:53 Mostly Cloudy 83 28.3 71 21.7 67 67 E 5 7 29.88 1012 10 16 N/A
5:53 pm 17:53 Cloudy 84 28.9 71 21.7 65 65 NE 5 7 29.88 1012 10 16 N/A
6:53 pm 18:53 Mostly Cloudy 82 27.8 71 21.7 69 69 NE 3 6 29.88 1012 10 16 N/A
7:53 pm 19:53 Mostly Cloudy 78 25.6 70 21.1 76 76 NE 6 9 29.89 1012 10 16 N/A
8:53 pm 20:53 Mostly Cloudy 76 24.4 70 21.1 82 82 N N/A 29.91 1013 10 16 N/A
9:53 pm 21:53 Mostly Cloudy 71 21.7 70 21.1 96 96 N N/A 29.92 1013 10 16 N/A
10:53 pm 22:53 Mostly Clear 71 21.7 70 21.1 96 96 N N/A 29.93 1014 8 13 N/A
11:53 pm 23:53 Clear with Mist and Fog 70 21.1 69 20.6 97 97 N N/A 29.92 1013 5 8 N/A

Powered by AerisWeather